This is the latest recevied weather packets stored in our database for station/object OK1FET-15. If no packets are shown the sender has not sent any weather packets the latest 1 day(s).
| Time | Temp. | Humidity | Pressure | Rain* | Wind** | Luminosity | Snow |
|---|---|---|---|---|---|---|---|
| 1777987162 | 24.44° C | 37% | 1005.1 hPa | - | 0 m/s | - | - |
| 1777986854 | 24.44° C | 40% | 1005.2 hPa | - | 0 m/s | - | - |
| 1777986546 | 24.44° C | 37% | 1005.2 hPa | - | 0 m/s | - | - |
| 1777986238 | 24.44° C | 38% | 1005.3 hPa | - | 0 m/s | - | - |
| 1777985930 | 24.44° C | 37% | 1005.4 hPa | - | 0 m/s | - | - |
| 1777985622 | 24.44° C | 36% | 1005.4 hPa | - | 0 m/s | - | - |
| 1777985314 | 24.44° C | 35% | 1005.4 hPa | - | 0 m/s | - | - |
| 1777985006 | 25° C | 34% | 1005.4 hPa | - | 0 m/s | - | - |
| 1777984698 | 25° C | 33% | 1005.5 hPa | - | 0 m/s | - | - |
| 1777984389 | 25.56° C | 33% | 1005.6 hPa | - | 0 m/s | - | - |
| 1777984081 | 26.11° C | 32% | 1005.6 hPa | - | 0 m/s | - | - |
| 1777983773 | 26.67° C | 29% | 1005.5 hPa | - | 0 m/s | - | - |
| 1777983465 | 27.22° C | 27% | 1005.5 hPa | - | 0 m/s | - | - |
| 1777983156 | 27.78° C | 26% | 1005.5 hPa | - | 0 m/s | - | - |
| 1777982847 | 28.89° C | 25% | 1005.6 hPa | - | 0 m/s | - | - |
| 1777982539 | 30° C | 25% | 1005.5 hPa | - | 0 m/s | - | - |
| 1777982230 | 30.56° C | 25% | 1005.6 hPa | - | 0 m/s | - | - |
| 1777981921 | 32.22° C | 24% | 1005.6 hPa | - | 0 m/s | - | - |
| 1777981612 | 32.78° C | 23% | 1005.7 hPa | - | 0 m/s | - | - |
| 1777981303 | 33.33° C | 23% | 1005.7 hPa | - | 0 m/s | - | - |
| 1777980994 | 33.89° C | 23% | 1005.7 hPa | - | 0.45 m/s, 81° | - | - |
| 1777980685 | 32.78° C | 24% | 1005.8 hPa | - | 0.45 m/s, 111° | - | - |
| 1777980376 | 32.22° C | 23% | 1005.9 hPa | - | 0.45 m/s, 130° | - | - |
| 1777980067 | 31.67° C | 23% | 1005.9 hPa | - | 0.89 m/s, 78° | - | - |
| 1777979758 | 33.33° C | 23% | 1006 hPa | - | 0 m/s | - | - |
* Rain since midnight (hover to see other rain measurements)
** Current wind speed in m/s (hover to see current wind gust speed)